Date,TemperatureHighF,TemperatureAvgF,TemperatureLowF,DewpointHighF,DewpointAvgF,DewpointLowF,HumidityHigh,HumidityAvg,HumidityLow,PressureMaxIn,PressureMinIn,WindSpeedMaxMPH,WindSpeedAvgMPH,GustSpeedMaxMPH,PrecipitationSumIn
2013-2-1,66,55,46,48,46,42,92,74,49,30.20,30.09,9,2,0,0.00
2013-2-2,58,51,48,50,47,44,93,86,73,30.28,30.20,12,2,0,0.00
2013-2-3,56,51,48,47,44,41,91,79,65,30.24,30.13,14,3,0,0.00
2013-2-4,55,49,47,49,46,43,94,89,77,30.17,30.05,16,3,0,0.00
2013-2-5,55,50,47,48,45,42,90,83,75,30.14,30.06,23,6,0,0.00
2013-2-6,56,50,43,47,44,39,91,81,57,30.18,30.11,19,4,0,0.00
2013-2-7,54,49,44,47,43,39,90,81,63,30.16,29.98,17,3,0,0.24
2013-2-8,47,44,43,41,40,38,90,87,74,30.01,29.92,14,2,0,0.12
2013-2-9,49,48,46,34,32,28,60,53,44,30.07,30.07,3,0,0,0.00
2013-2-10,60,49,41,44,39,31,92,68,39,30.11,30.00,12,2,0,0.00
2013-2-11,63,52,44,45,38,26,89,61,27,30.22,30.05,16,3,0,0.00
2013-2-12,60,50,44,46,44,41,94,81,49,30.34,30.22,13,2,0,0.00
2013-2-13,59,50,44,49,45,41,93,84,61,30.33,30.20,12,2,0,0.01
2013-2-14,69,55,46,48,45,42,95,72,41,30.23,30.13,11,1,0,0.00
2013-2-15,71,60,48,46,43,40,84,57,33,30.25,30.18,9,1,0,0.00
2013-2-16,68,57,50,50,46,44,90,69,47,30.21,30.04,16,3,0,0.00
2013-2-17,59,52,46,48,45,42,91,79,59,30.04,29.95,16,3,0,0.00
2013-2-18,52,49,47,45,42,37,88,76,65,30.03,29.96,22,5,0,0.00
2013-2-19,49,46,42,44,39,33,90,77,61,29.96,29.74,25,6,0,0.43
2013-2-20,56,48,40,43,38,33,82,69,50,30.05,29.83,19,4,0,0.00
2013-2-21,57,50,44,43,39,32,78,66,39,30.16,30.04,17,4,0,0.00
2013-2-22,59,50,44,46,43,38,93,78,47,30.24,30.15,24,4,0,0.00
2013-2-23,56,51,47,48,40,32,93,66,45,30.25,30.15,23,6,0,0.02
2013-2-24,60,52,48,44,32,24,85,49,26,30.25,30.15,20,4,0,0.00
2013-2-25,58,51,45,48,44,40,90,76,58,30.25,30.15,17,3,0,0.00
2013-2-26,62,52,45,43,36,25,86,58,25,30.20,30.12,19,4,0,0.00
2013-2-27,64,55,50,48,45,35,87,70,40,30.35,30.25,22,5,0,0.00
2013-2-28,62,53,48,52,49,45,94,85,69,30.43,30.35,22,2,0,0.00